Presure
201 139 153 176 118 141 167 180 189 181 193 181 186 191 196 214 205 213 214 153 194 196 178 235 276 272 342 366 357 355 354 434 384 377 381 392 295 290 346 306 247 224 221 210
181 142 179 158 171 179 139 187 185 186 175 204 192 114 184 211 205 200 211 197 189 192 205 194 276 285 295 368 354 333 351 355 374 364 371 372 307 269 345 304 230 211 222 219
166 185 93 170 170 174 182 182 189 187 184 181 185 168 191 213 204 203 204 186 197 211 202 204 249 285 292 363 360 334 249 344 349 359 359 359 367 365 276 368 279 235 206 203
178 143 178 171 135 173 176 175 170 199 184 175 188 177 194 204 196 186 213 210 188 188 220 197 265 269 324 347 341 332 191 323 352 355 368 364 352 362 368 263 281 231 205 182
173 179 161 166 174 183 187 192 184 171 194 201 192 177 179 208 198 135 197 232 208 170 156 215 212 272 357 362 363 329 252 286 262 381 385 380 371 251 368 301 329 270 238 216
166 169 148 172 159 176 187 184 184 204 192 198 177 182 167 201 200 193 185 229 223 198 158 215 243 267 317 358 340 323 268 246 289 259 391 398 379 403 309 276 316 297 243 237
171 154 164 171 167 178 179 202 197 199 205 188 197 198 190 193 191 197 210 203 224 201 213 191 221 223 264 337 352 317 269 243 265 317 270 414 387 397 354 275 317 263 269 234
197 177 164 181 165 180 176 185 178 184 180 202 185 194 172 193 197 190 202 198 212 152 206 206 216 178 265 346 355 309 242 273 289 263 294 251 238 252 310 244 287 291 278 249
187 219 177 171 194 193 167 174 183 196 210 203 200 187 164 161 206 190 186 181 195 154 207 210 203 225 209 260 351 331 242 237 275 264 255 259 258 277 254 241 256 287 289 237
217 218 198 174 170 175 182 175 182 175 205 210 202 190 199 176 209 196 185 175 191 200 206 201 208 160 218 260 301 357 292 289 273 267 268 269 247 234 239 263 277 273 298 249
214 213 182 208 170 215 180 208 201 203 207 209 201 189 205 177 210 200 189 194 198 202 204 219 181 218 205 225 219 361 300 280 266 252 264 273 258 247 278 273 249 258 272 289
214 202 194 204 214 214 213 215 163 195 213 203 190 191 191 176 196 181 194 191 178 195 190 196 186 147 209 221 205 245 362 285 262 264 246 258 257 254 242 244 251 211 225 220
214 200 206 196 211 206 212 216 217 203 212 204 191 188 202 189 185 205 184 194 196 196 188 192 184 171 220 179 224 231 225 330 278 254 244 215 221 260 261 250 223 220 212 212
213 200 205 200 203 203 209 211 212 208 211 201 192 189 204 176 188 186 180 191 197 181 185 194 183 165 211 174 181 186 226 214 286 295 247 248 198 202 203 224 226 213 204 219
214 185 213 202 205 203 204 208 209 207 211 203 192 194 195 193 160 193 192 174 202 192 184 198 191 198 165 160 194 162 207 218 229 222 268 311 252 238 239 195 110 213 200 203
208 216 207 205 201 196 205 206 198 205 211 193 212 191 178 196 186 195 188 186 201 205 196 190 195 199 175 218 165 189 205 199 168 148 234 218 233 271 296 242 236 182 206 223
205 211 207 209 199 198 198 205 193 205 197 202 193 206 186 206 188 185 183 185 181 202 200 191 174 174 196 191 210 131 192 202 187 210 193 218 187 244 236 249 275 317 276 240
218 214 204 206 203 198 194 200 198 203 201 197 199 208 188 196 209 202 194 180 190 187 183 190 194 195 194 181 191 193 203 185 213 173 215 179 223 185 228 237 221 223 249 275
215 212 206 212 205 197 193 194 196 199 202 195 205 201 185 188 182 205 198 187 184 192 190 193 172 188 194 200 161 195 191 163 185 178 190 205 169 226 184 156 209 223 224 228
216 210 216 209 214 198 193 189 200 197 191 193 197 190 191 191 181 191 192 200 194 185 202 193 201 186 191 161 196 188 197 186 172 189 191 215 188 212 169 219 186 183 89 95
216 213 211 212 215 183 197 189 200 194 195 193 192 190 190 187 194 196 190 179 184 181 188 195 189 134 175 197 187 195 187 184 170 149 192 171 165 176 192 169 213 126 212 220
221 219 206 213 222 194 179 192 200 190 185 190 188 183 181 186 182 194 183 180 189 184 192 202 196 189 182 188 191 188 174 196 178 179 187 190 181 178 176 162 209 208 192 161
219 222 217 223 210 201 197 194 190 195 188 192 181 186 183 185 176 178 192 192 190 193 179 188 195 183 182 185 181 187 181 187 193 143 164 183 175 191 143 188 171 157 195 166
215 209 215 211 204 208 192 198 183 200 190 191 192 183 187 181 180 179 104 186 180 180 177 176 169 181 121 184 179 186 179 172 182 182 185 183 169 190 179 189 164 203 177 151
216 209 211 202 200 204 206 202 178 184 187 190 182 193 183 187 181 174 168 181 181 176 140 187 185 186 190 184 180 182 178 189 172 170 147 180 173 183 174 185 148 170 192 169
227 211 208 196 198 198 201 204 203 197 193 190 181 183 201 184 185 177 177 186 181 179 179 175 177 181 192 189 191 174 170 185 179 171 178 177 177 173 166 176 165 124 183 152
Wind_Speed
44 35 43 51 48 43 38 47 47 44 46 46 46 51 54 53 52 52 54 33 51 75 36 70 74 68 72 44 35 35 28 12 9 7 10 17 52 64 64 89 96 87 77 65
44 45 54 44 47 46 36 52 51 47 46 50 50 45 49 54 51 48 56 48 45 66 59 63 73 70 51 36 29 30 34 24 16 7 9 19 39 45 58 81 84 78 68 72
45 51 37 47 51 49 54 51 51 47 44 46 47 44 50 55 52 48 53 44 58 63 70 60 65 69 52 32 26 28 22 26 16 7 8 16 25 35 54 59 83 84 62 66
51 47 53 53 44 53 53 48 42 49 47 44 45 44 50 54 53 43 54 52 60 53 70 49 71 69 54 40 31 27 20 25 28 18 10 18 26 32 39 44 75 76 68 82
53 52 55 56 56 55 53 53 53 41 46 46 44 39 40 50 49 21 50 53 49 45 22 72 64 69 57 41 33 29 20 20 10 18 9 16 23 26 35 52 70 87 83 80
58 57 54 56 43 57 54 55 48 47 48 46 40 38 38 47 45 43 45 52 50 45 20 67 71 67 67 44 33 27 21 14 23 6 7 8 17 22 34 42 64 86 71 81
61 54 61 60 57 57 56 49 49 47 48 44 44 44 42 44 45 43 44 46 53 43 54 63 68 61 63 49 35 25 24 16 16 14 6 19 21 25 29 39 59 55 77 89
56 61 64 56 58 58 59 57 52 50 47 48 42 42 34 44 44 41 42 41 51 19 50 54 64 30 63 53 38 27 21 32 26 13 15 8 18 15 30 23 47 61 79 82
60 57 62 66 54 53 52 58 44 47 47 49 46 40 39 42 41 40 36 38 46 27 51 51 59 66 54 60 43 22 23 25 25 16 9 11 9 18 19 21 27 51 67 71
53 54 54 63 63 57 57 57 47 50 46 46 47 41 43 36 38 40 35 38 41 46 45 49 51 24 62 53 54 33 27 27 27 23 17 9 12 13 13 21 33 39 47 67
47 50 58 52 65 47 58 45 44 44 43 45 46 39 43 34 37 38 38 37 40 44 44 49 51 58 59 57 52 44 20 23 32 26 21 17 10 12 11 16 19 24 31 44
46 51 55 50 47 43 42 41 37 43 42 45 40 39 38 29 38 35 40 34 30 37 37 38 40 31 51 61 49 51 43 16 30 26 22 12 8 11 12 11 22 28 30 32
48 49 51 53 43 43 45 43 42 43 40 42 43 39 42 35 33 36 36 36 35 34 34 37 36 56 45 63 58 53 46 47 13 25 20 18 11 3 9 23 26 29 32 33
50 51 48 51 47 41 45 45 43 44 40 43 43 42 41 32 35 36 34 35 34 26 31 35 26 51 38 50 47 49 48 37 44 19 19 14 5 12 13 16 18 23 23 38
54 53 47 49 46 41 44 45 44 42 40 43 42 46 39 42 29 41 41 26 35 32 31 35 29 34 49 58 30 51 39 43 40 33 35 26 6 9 7 21 29 21 13 21
55 52 49 47 43 43 44 47 41 44 42 45 39 43 41 44 38 41 38 34 35 33 31 31 30 32 26 38 50 27 24 27 43 19 34 19 17 21 8 19 19 23 24 28
59 56 50 48 43 42 45 51 45 46 43 43 46 40 42 41 41 36 36 37 31 34 30 29 32 25 26 27 31 26 17 25 27 24 21 34 32 33 21 16 12 17 25 36
61 58 52 51 46 39 51 52 46 46 44 44 47 37 44 43 39 41 42 36 37 34 28 29 27 29 26 26 21 21 24 17 23 25 26 33 32 33 25 29 11 10 11 7
61 60 56 52 50 43 52 53 50 46 49 47 43 42 45 43 41 38 40 40 39 39 37 32 25 25 27 27 18 22 14 36 6 21 6 20 38 31 22 17 8 12 14 14
67 63 58 54 49 46 52 56 54 47 51 51 47 46 45 43 45 41 42 39 45 38 40 34 30 26 25 28 28 24 24 14 17 7 19 25 7 8 14 23 17 20 36 36
69 65 61 57 51 49 56 57 55 52 54 51 49 46 47 45 43 40 42 42 41 40 39 40 34 46 25 28 25 30 24 19 14 13 18 8 27 16 20 17 20 25 14 20
70 68 62 59 55 53 61 56 54 56 55 55 53 52 48 48 47 44 46 46 44 44 43 39 36 34 33 30 27 29 23 32 18 13 16 12 16 13 18 35 29 23 8 27
63 65 64 58 58 55 58 61 59 59 57 59 56 55 55 54 51 49 46 46 45 45 40 40 41 40 40 37 32 31 29 32 32 36 25 24 15 26 25 15 25 39 25 32
66 67 65 62 61 63 61 60 62 60 58 59 59 57 58 59 57 55 41 51 50 50 45 43 34 45 34 44 41 38 35 31 34 33 34 30 29 36 25 31 35 37 26 23
70 70 67 68 68 69 65 64 61 62 60 62 58 59 59 59 60 60 59 60 57 54 47 53 51 51 49 49 48 43 41 42 38 36 39 37 36 39 33 37 34 34 39 34
68 74 74 73 76 70 70 66 63 64 64 65 63 61 59 61 62 62 62 62 64 62 60 56 51 51 53 53 46 48 47 47 47 45 45 44 41 37 38 41 38 49 39 39
Wind_Direction
292 313 313 306 280 306 323 318 318 320 321 324 324 322 323 324 330 336 338 323 344 314 353 340 347 344 348 346 349 350 347 311 311 273 211 196 230 229 214 216 223 228 230 227
292 312 295 297 311 304 304 313 317 319 325 313 321 304 326 326 332 332 337 343 334 321 342 335 349 348 352 348 350 359 360 360 11 322 228 204 227 231 213 213 220 220 228 230
291 288 264 301 309 305 310 314 314 318 321 325 325 321 328 328 331 335 333 332 327 342 333 349 349 353 357 357 356 2 328 360 347 349 231 213 214 209 222 204 213 222 216 222
287 289 293 301 300 309 311 316 321 310 320 323 323 326 326 328 330 334 344 343 324 325 350 360 357 354 3 6 2 3 295 354 345 335 284 208 207 205 202 215 211 216 218 233
288 289 301 301 299 299 300 302 310 317 310 309 318 322 331 327 328 315 335 349 338 341 324 345 346 358 5 10 11 12 345 15 329 350 333 220 202 194 192 202 198 208 216 226
290 286 296 296 282 298 296 302 308 301 312 309 325 322 316 326 327 329 323 354 359 349 2 346 5 3 8 12 11 15 4 352 20 282 5 200 187 177 194 200 194 202 212 217
279 277 292 289 297 294 298 299 300 302 297 311 309 313 323 325 327 336 348 351 4 355 2 337 353 354 6 12 12 18 26 4 28 32 176 115 131 148 174 194 190 208 205 213
277 275 288 281 295 290 297 299 307 309 315 300 316 313 321 324 326 333 348 349 357 343 1 360 357 17 10 15 16 14 23 30 29 64 67 147 181 171 173 195 203 204 202 211
275 284 275 284 282 284 299 300 301 300 289 295 301 313 305 311 322 329 338 329 352 355 358 6 346 14 2 14 19 22 21 26 35 42 75 100 134 166 179 190 207 205 202 212
285 285 273 277 285 287 285 297 298 306 289 288 293 309 306 320 318 322 331 325 344 356 1 353 6 24 5 22 23 24 18 31 36 40 48 85 154 170 177 199 202 209 202 206
278 281 268 285 283 292 288 281 284 285 284 285 292 306 301 315 315 320 329 342 353 357 359 14 348 23 352 18 10 29 24 25 39 39 43 78 97 132 131 209 198 205 207 202
270 275 275 285 289 290 284 280 296 284 281 282 294 299 307 311 315 318 323 337 333 355 356 5 352 344 16 27 6 28 36 31 34 36 37 70 92 119 150 144 185 182 184 198
268 270 277 279 283 287 284 280 274 276 280 280 288 295 293 307 312 315 318 327 338 348 348 357 345 324 27 335 39 32 25 45 33 40 45 77 122 108 163 180 181 188 194 203
265 267 271 274 280 283 282 280 274 274 279 276 282 288 288 303 304 310 310 320 329 333 339 353 349 323 15 337 347 353 40 32 51 56 37 30 171 129 132 181 195 191 213 212
261 268 264 269 273 278 277 275 273 276 277 273 279 281 293 289 293 301 309 311 321 332 338 353 2 6 332 324 23 339 29 46 46 31 59 64 317 332 270 179 270 215 224 233
264 263 261 265 267 273 273 272 270 273 273 270 276 280 287 287 295 299 303 310 319 324 336 342 356 7 335 15 321 1 39 30 341 340 61 18 49 56 66 264 266 232 237 242
264 261 262 260 259 267 268 269 268 271 267 271 271 276 282 282 288 294 299 305 311 318 329 339 317 327 5 6 16 312 9 18 342 56 38 55 350 71 51 49 60 77 241 246
257 257 259 257 258 257 260 266 267 271 265 267 271 275 275 280 286 287 293 299 303 309 317 329 339 342 351 337 9 15 6 349 53 342 64 333 62 345 80 77 30 360 65 94
257 256 256 253 254 248 257 262 263 266 267 266 272 268 275 276 290 287 289 293 300 304 311 315 301 335 338 352 323 1 8 312 339 306 340 20 327 62 324 316 39 85 82 101
256 254 255 256 253 246 251 257 260 260 263 265 267 268 273 273 281 281 283 289 290 300 303 307 318 317 333 290 346 337 351 359 298 284 344 21 36 79 317 69 317 307 297 299
254 253 253 254 251 247 250 254 256 259 259 265 269 267 271 273 275 277 281 287 291 298 304 304 301 296 302 329 324 338 328 327 289 338 337 243 304 321 341 321 32 279 43 30
254 252 252 251 250 239 259 249 251 256 262 261 265 269 268 271 276 275 278 284 287 291 301 298 304 306 305 315 324 321 298 333 309 300 327 313 254 270 286 297 0 4 340 305
251 252 249 250 247 242 243 246 250 250 255 258 265 266 272 272 274 277 278 281 283 290 288 297 300 303 304 307 306 311 306 319 323 308 282 317 286 335 268 323 248 291 344 284
244 247 249 247 247 244 240 242 251 250 254 256 256 263 265 271 275 279 287 281 285 288 291 292 288 301 300 300 299 306 305 294 311 313 321 320 292 327 314 325 285 324 286 296
242 246 244 247 245 245 244 243 252 251 253 255 260 256 262 264 269 276 282 280 281 285 288 287 290 294 294 295 297 302 302 306 296 297 301 313 316 319 308 323 292 311 327 276
245 241 242 244 248 247 247 247 245 244 246 251 257 259 258 258 259 269 274 272 277 280 282 284 287 291 291 291 290 299 296 299 298 298 305 306 308 308 306 306 304 306 318 279